Location: Unspecified
(44.0704°N, 88.6889°W)
Time: 19:30:30
(UTC+02:00)

deb Explorer IX - Pass Details

Date: 20 June 2019
Orbit: 539 x 1112 km, 38.8° (Epoch: 21 July)

Event Time Altitude Azimuth Distance (km) Brightness Sun altitude
Rises 04:34:24 0° 273° (W) 3,782 ? -8.2°
Reaches altitude 10° 04:38:22 10° 253° (WSW) 2,726 ? -8.7°
Maximum altitude 04:42:00 16° 219° (SW) 2,237 ? -9.2°
Drops below altitude 10° 04:45:24 10° 184° (S) 2,496 ? -9.6°
Enters shadow 04:46:55 - 173° (S) 2,808 ? -9.8°
